Location: Boncourt
(49.6160°N, 3.9448°E)
Time: 15:45:24
(UTC+00:00)

USA 215 - Visible Passes

Search period start: 30 September 2023 00:00
Search period end: 10 October 2023 00:00
Orbit: 1101 x 1107 km, 123.0° (Epoch: 22 September)

Date Brightness Start Highest point End Pass type
(mag) Time Alt. Az. Time Alt. Az. Time Alt. Az.
30 Sep 4.8 00:36:24 10° E 00:39:13 27° ENE 00:39:13 27° ENE visible
30 Sep 3.2 02:18:48 10° ESE 02:25:22 85° NNE 02:26:34 63° NW visible
30 Sep 3.7 04:02:51 10° SSE 04:08:49 37° SW 04:13:56 14° WNW visible
30 Sep 4.4 18:49:42 19° ESE 18:50:48 20° SE 18:55:23 10° S visible
30 Sep 3.9 20:37:08 39° SSW 20:37:08 39° SSW 20:41:10 10° SW visible
30 Sep 5.5 23:54:01 10° ENE 23:54:52 14° ENE 23:54:52 14° ENE visible
01 Oct 3.6 01:36:16 10° E 01:42:13 60° NE 01:42:13 60° NE visible
01 Oct 3.2 03:19:14 10° SE 03:25:44 63° SW 03:29:34 26° WNW visible
01 Oct 4.5 05:05:05 10° SSW 05:09:39 20° WSW 05:14:13 10° W visible
01 Oct 4.1 19:53:46 30° S 19:53:46 30° S 19:57:36 10° SSW visible
01 Oct 5.4 21:41:12 12° WSW 21:41:12 12° WSW 21:41:36 10° WSW visible
02 Oct 4.5 00:53:54 10° E 00:57:48 35° ENE 00:57:48 35° ENE visible
02 Oct 3.2 02:36:19 10° ESE 02:42:53 85° NNE 02:45:09 45° NW visible
02 Oct 3.8 04:20:21 10° SSE 04:26:20 37° SW 04:32:20 10° WNW visible
02 Oct 4.6 19:10:23 18° SSE 19:10:23 18° SSE 19:12:55 10° S visible
02 Oct 5.2 20:57:49 14° SW 20:57:49 14° SW 20:58:41 10° SW visible
03 Oct 5.2 00:11:31 10° ENE 00:13:20 20° ENE 00:13:20 20° ENE visible
03 Oct 3.5 01:53:46 10° E 02:00:13 62° NNE 02:00:41 61° N visible
03 Oct 3.2 03:36:46 10° SE 03:43:15 63° SW 03:48:02 20° WNW visible
03 Oct 5.2 20:14:22 13° SSW 20:14:22 13° SSW 20:15:07 10° SSW visible
04 Oct 4.2 01:11:24 10° E 01:16:10 43° NE 01:16:10 43° NE visible
04 Oct 3.2 02:53:49 10° ESE 03:00:23 85° NNE 03:03:31 35° NW visible
04 Oct 3.8 04:37:53 10° SSE 04:43:51 37° SW 04:49:51 10° WNW visible
05 Oct 5.0 00:29:01 10° ENE 00:31:38 25° ENE 00:31:38 25° ENE visible
05 Oct 3.5 02:11:16 10° E 02:17:43 62° NNE 02:18:59 53° NNW visible
05 Oct 3.2 03:54:16 10° SE 04:00:46 63° SW 04:06:19 15° WNW visible
05 Oct 5.6 23:46:30 10° ENE 23:47:04 13° ENE 23:47:04 13° ENE visible
06 Oct 4.0 01:28:54 10° E 01:34:25 48° NNE 01:34:25 48° NNE visible
06 Oct 3.2 03:11:20 10° ESE 03:17:54 86° NNE 03:21:46 27° WNW visible
06 Oct 3.9 04:55:24 10° SSE 05:01:21 36° SW 05:07:20 10° WNW visible
07 Oct 4.8 00:46:32 10° ENE 00:49:50 30° NE 00:49:50 30° NE visible
07 Oct 3.6 02:28:46 10° E 02:35:13 63° NNE 02:37:10 45° NW visible
07 Oct 3.3 04:11:47 10° SE 04:18:16 63° SW 04:24:31 11° WNW visible
08 Oct 5.4 00:04:01 10° ENE 00:05:14 16° ENE 00:05:14 16° ENE visible
08 Oct 3.9 01:46:25 10° E 01:52:34 51° NNE 01:52:34 51° NNE visible
08 Oct 3.2 03:28:50 10° ESE 03:35:24 86° NNE 03:39:55 22° WNW visible
08 Oct 3.9 05:12:55 10° SSE 05:18:52 36° SW 05:24:51 10° WNW visible
09 Oct 4.5 01:04:02 10° ENE 01:07:57 34° NE 01:07:57 34° NE visible
09 Oct 3.6 02:46:17 10° E 02:52:44 63° NNE 02:55:18 38° NW visible
09 Oct 3.3 04:29:18 10° SE 04:35:47 62° SW 04:42:18 10° WNW visible
